User: anonymous   Login
Location: Unspecified
(0.0000°N, 0.0000°E)
Time: 00:19:45
(UTC+00:00)
Language:

OTV 5 (USA 277) - Orbit

View from above orbital plane
View from above orbital plane
View from above satellite
View from above satellite

Ground track
Ground track

The orbit data is extracted from the following two-line orbital elements,

1 42932U 17052A   19111.40231040 0.00001000  00000-0  42459-5 0    05
2 42932  54.5128 130.5756 0012000 151.7062 208.2937 15.84507750    02
Epoch (UTC): 21 April 2019 09:39:19
Eccentricity: 0.0012000
inclination: 54.5128°
perigee height: 309 km
apogee height: 326 km
right ascension of ascending node: 130.5756°
argument of perigee: 151.7062°
revolutions per day: 15.84507750
mean anomaly at epoch: 208.2937°
orbit number at epoch: 0

The dashed part of the orbit path shows where the satellite is in the earth's shadow,  

DLR